Date_and_time,latitude,longitude,wind_speed,RelWindDirFrom,WindDirFrom,air_pressure,air_temperature,relative_humidity,Temp,platform_speed_wrt_ground,air_pressure_at_mean_sea_level,platform_orientation
2019-02-14 23:40,50.630445,-96.9807733333333,8.6,16.1,302,987.45,-15.1,67,0.49,0.0,1016.90,270.0
2019-02-14 23:50,50.6304466666667,-96.980775,9.1,13.5,302,987.56,-15.2,67,0.49,0.0,1017.02,270.0
2019-02-15 00:00,50.630445,-96.9807733333333,9.6,14.7,308,987.69,-15.2,68,0.49,0.0,1017.15,211.1
2019-02-15 00:00,50.630445,-96.9807733333333,8.7,9.0,300,987.74,-15.4,68,0.49,0.0,1017.21,194.5
2019-02-15 00:10,50.6304466666667,-96.98077,9.0,12.9,306,987.79,-15.4,68,0.49,0.0,1017.26,194.5
2019-02-15 00:20,50.6304466666667,-96.98077,9.6,14.4,307,987.92,-15.5,68,0.50,0.0,1017.40,194.5
2019-02-15 00:30,50.630435,-96.9807566666667,9.1,15.0,305,988.15,-15.6,68,0.51,0.0,1017.65,194.5
2019-02-15 00:40,50.6304366666667,-96.9807616666667,8.6,12.0,307,988.33,-15.8,68,0.51,0.0,1017.85,194.5
2019-02-15 00:50,50.630455,-96.9807666666667,9.3,12.5,310,988.51,-15.8,68,0.51,0.0,1018.04,194.5
2019-02-15 01:00,50.6304366666667,-96.9807566666667,8.7,18.4,318,988.78,-16.0,70,0.51,0.0,1018.36,137.0
2019-02-15 01:10,50.63044,-96.9807583333333,11.1,17.1,321,988.95,-16.2,70,0.51,0.0,1018.56,137.0
2019-02-15 01:20,50.63044,-96.9807633333333,10.8,17.5,321,989.05,-16.5,71,0.52,0.0,1018.68,137.0
2019-02-15 01:30,50.6304433333333,-96.980765,11.0,15.1,324,989.12,-16.6,71,0.52,0.0,1018.76,137.0
2019-02-15 01:40,50.6304433333333,-96.980765,9.5,14.5,324,989.24,-16.8,71,0.52,0.0,1018.91,137.0
2019-02-15 01:50,50.6304433333333,-96.980765,9.4,13.2,329,989.43,-17.0,72,0.52,0.0,1019.12,137.0
2019-02-15 02:00,50.6304433333333,-96.9807633333333,9.0,13.6,324,989.52,-17.1,72,0.52,0.0,1019.22,90.0
2019-02-15 02:10,50.63044,-96.9807616666667,10.6,16.7,318,989.48,-17.1,72,0.52,0.0,1019.18,90.0
2019-02-15 02:20,50.63045,-96.9807766666667,10.9,15.5,316,989.44,-17.1,72,0.52,0.0,1019.15,90.0
2019-02-15 02:30,50.6304483333333,-96.9807733333333,10.3,15.3,318,989.60,-17.1,72,0.52,0.0,1019.32,90.0
2019-02-15 02:40,50.6304683333333,-96.9808083333333,9.0,13.7,316,989.80,-17.2,72,0.52,0.0,1019.54,90.0
2019-02-15 02:50,50.6304516666667,-96.9807483333333,7.8,13.1,318,989.91,-17.2,73,0.52,0.0,1019.66,90.0
2019-02-15 03:00,50.63044,-96.9807783333333,8.0,11.4,317,989.84,-17.3,73,0.52,0.0,1019.62,270.0
2019-02-15 03:10,50.6304466666667,-96.9807816666667,8.0,13.3,311,989.84,-17.4,74,0.52,0.0,1019.63,270.0
2019-02-15 03:20,50.6304466666667,-96.9807783333333,8.9,13.0,306,989.93,-17.6,73,0.51,0.0,1019.74,270.0
2019-02-15 03:30,50.630445,-96.980775,8.2,13.1,307,990.06,-17.6,73,0.51,0.0,1019.90,270.0
2019-02-15 03:40,50.6304466666667,-96.9807733333333,6.8,10.7,300,990.25,-17.9,73,0.50,0.0,1020.10,270.0
2019-02-15 03:50,50.6304483333333,-96.9807716666667,6.9,11.1,298,990.37,-18.0,74,0.48,0.0,1020.25,270.0
2019-02-15 04:00,50.6304483333333,-96.9807716666667,4.9,8.5,291,990.62,-18.2,75,0.48,0.0,1020.51,323.4
2019-02-15 04:10,50.6304733333333,-96.980785,5.2,8.8,293,990.76,-18.3,75,0.48,0.0,1020.67,323.4
2019-02-15 04:20,50.6304683333333,-96.9807783333333,6.0,10.1,295,990.77,-18.5,75,0.49,0.0,1020.69,323.4
2019-02-15 04:30,50.6304683333333,-96.9808166666667,7.6,11.5,294,990.84,-18.5,75,0.49,0.0,1020.77,323.4
2019-02-15 04:40,50.630455,-96.9807683333333,8.0,11.3,293,991.01,-18.7,75,0.49,0.0,1020.96,323.4
2019-02-15 04:50,50.6304566666667,-96.98077,9.4,13.6,292,991.05,-18.7,75,0.49,0.0,1021.01,323.4
2019-02-15 05:00,50.63046,-96.9807666666667,9.0,12.4,302,991.12,-18.8,74,0.49,0.0,1021.09,360.0
2019-02-15 05:10,50.63046,-96.9807633333333,9.4,12.9,303,991.10,-18.7,74,0.50,0.0,1021.07,360.0
2019-02-15 05:20,50.6304583333333,-96.9807766666667,9.2,13.8,303,991.15,-18.8,74,0.50,0.0,1021.12,360.0
2019-02-15 05:30,50.630465,-96.9807833333333,9.2,14.3,307,991.20,-18.9,75,0.49,0.0,1021.19,360.0
2019-02-15 05:40,50.6304616666667,-96.98078,8.3,11.4,315,991.21,-18.8,75,0.49,0.0,1021.22,360.0
2019-02-15 05:50,50.6304583333333,-96.9807766666667,8.7,15.0,317,991.23,-18.7,76,0.49,0.0,1021.24,360.0
2019-02-15 06:00,50.63046,-96.9807766666667,7.7,11.8,313,991.41,-18.8,76,0.49,0.0,1021.44,32.5
2019-02-15 06:10,50.6304583333333,-96.980775,8.5,12.9,311,991.41,-18.8,76,0.48,0.0,1021.45,32.5
2019-02-15 06:20,50.6304583333333,-96.9807733333333,8.1,12.9,312,991.55,-19.0,76,0.48,0.0,1021.60,32.5
2019-02-15 06:30,50.6304583333333,-96.9807733333333,7.7,12.8,311,991.61,-19.1,77,0.48,0.0,1021.68,32.5
2019-02-15 06:40,50.6304583333333,-96.9807716666667,9.7,16.6,310,991.54,-18.9,77,0.48,0.0,1021.61,32.5
2019-02-15 06:50,50.6304583333333,-96.9807716666667,8.6,12.5,305,991.80,-19.0,77,0.49,0.0,1021.88,32.5
2019-02-15 07:00,50.6304483333333,-96.9807583333333,8.3,12.7,300,992.10,-19.3,76,0.49,0.0,1022.21,90.0
2019-02-15 07:10,50.63045,-96.9807616666667,10.1,13.4,304,992.06,-19.5,77,0.48,0.0,1022.17,90.0
2019-02-15 07:20,50.6304483333333,-96.9807566666667,10.1,13.3,300,992.22,-19.6,77,0.46,0.0,1022.35,90.0
2019-02-15 07:30,50.6304483333333,-96.9807566666667,10.0,13.9,305,992.26,-19.6,77,0.44,0.0,1022.39,90.0
2019-02-15 07:40,50.6304483333333,-96.9807566666667,10.1,15.2,305,992.23,-19.6,77,0.43,0.0,1022.36,90.0
2019-02-15 07:50,50.63045,-96.98076,10.5,13.9,306,992.28,-19.5,77,0.44,0.0,1022.40,90.0
2019-02-15 08:00,50.63045,-96.9807616666667,9.9,14.2,309,992.21,-19.6,78,0.45,0.0,1022.34,131.7
2019-02-15 08:10,50.6304616666667,-96.9807533333333,8.8,13.6,310,992.16,-19.7,79,0.45,0.0,1022.30,131.7
2019-02-15 08:20,50.6304516666667,-96.9807566666667,9.3,12.9,311,992.21,-19.7,79,0.45,0.0,1022.36,131.7
2019-02-15 08:30,50.630455,-96.9807516666667,8.0,10.7,302,992.39,-19.8,79,0.47,0.0,1022.54,131.7
2019-02-15 08:40,50.6304566666667,-96.9807483333333,7.7,11.8,298,992.45,-19.9,79,0.47,0.0,1022.61,131.7
2019-02-15 08:50,50.6304583333333,-96.9807566666667,7.6,11.2,297,992.53,-20.0,79,0.46,0.0,1022.73,131.7
2019-02-15 09:00,50.6304583333333,-96.980755,9.1,12.9,295,992.70,-20.2,79,0.46,0.0,1022.92,90.0
2019-02-15 09:10,50.6304566666667,-96.9807616666667,8.6,12.9,289,992.96,-20.2,79,0.46,0.0,1023.20,90.0
2019-02-15 09:20,50.6304583333333,-96.9807666666667,5.8,10.6,274,993.26,-20.5,79,0.46,0.0,1023.53,90.0
2019-02-15 09:30,50.6304516666667,-96.980765,5.0,7.2,278,993.36,-20.9,80,0.46,0.0,1023.65,90.0
2019-02-15 09:40,50.6304666666667,-96.9807833333333,5.8,9.8,288,993.25,-21.0,80,0.46,0.0,1023.54,90.0
2019-02-15 09:50,50.630455,-96.9807616666667,6.1,9.3,287,993.24,-21.1,81,0.46,0.0,1023.54,90.0
2019-02-15 10:00,50.630465,-96.98077,6.7,9.4,290,993.18,-21.1,81,0.47,0.0,1023.49,360.0
2019-02-15 10:10,50.63046,-96.98077,6.2,8.7,301,993.15,-21.1,81,0.47,0.0,1023.46,360.0
2019-02-15 10:20,50.6304533333333,-96.9807733333333,6.6,9.9,302,993.23,-21.1,81,0.47,0.0,1023.55,360.0
2019-02-15 10:30,50.63046,-96.980775,6.7,8.9,308,993.24,-21.1,81,0.48,0.0,1023.56,360.0
2019-02-15 10:40,50.6304616666667,-96.9807716666667,7.3,10.6,312,993.15,-21.2,82,0.46,0.0,1023.48,360.0
2019-02-15 10:50,50.6304616666667,-96.98077,8.1,10.3,302,993.27,-21.3,82,0.45,0.0,1023.62,360.0
2019-02-15 11:00,50.6304633333333,-96.9807633333333,7.7,10.2,297,993.31,-21.4,82,0.45,0.0,1023.67,345.5
2019-02-15 11:10,50.6304683333333,-96.9807566666667,8.5,10.4,292,993.43,-21.5,82,0.45,0.0,1023.82,345.5
2019-02-15 11:20,50.6304716666667,-96.9807633333333,7.9,10.9,286,993.45,-21.8,82,0.45,0.0,1023.88,345.5
2019-02-15 11:30,50.6304716666667,-96.980765,7.5,10.2,292,993.42,-22.0,82,0.45,0.0,1023.87,345.5
2019-02-15 11:40,50.6304666666667,-96.980765,7.7,10.5,291,993.55,-22.1,82,0.45,0.0,1024.01,345.5
2019-02-15 11:50,50.630465,-96.9807633333333,7.4,10.5,293,993.69,-22.2,82,0.45,0.0,1024.16,345.5
2019-02-15 12:00,50.6304633333333,-96.9807633333333,6.1,9.1,295,993.76,-22.2,82,0.45,0.0,1024.24,347.4
2019-02-15 12:10,50.630465,-96.9807633333333,6.1,8.8,300,993.69,-22.1,82,0.45,0.0,1024.16,347.4
2019-02-15 12:20,50.6304633333333,-96.9807633333333,5.1,8.4,290,993.81,-22.1,82,0.45,0.0,1024.28,347.4
2019-02-15 12:30,50.6304616666667,-96.980765,4.0,7.7,288,993.86,-22.3,82,0.45,0.0,1024.35,347.4
2019-02-15 12:40,50.6304633333333,-96.9807666666667,2.1,4.3,273,993.95,-22.4,82,0.45,0.0,1024.46,347.4
2019-02-15 12:50,50.6304633333333,-96.9807666666667,2.7,3.9,267,994.04,-22.9,82,0.45,0.0,1024.59,347.4
2019-02-15 13:00,50.6304483333333,-96.9807783333333,1.6,3.5,247,994.21,-23.3,82,0.45,0.0,1024.80,207.4
2019-02-15 13:10,50.63045,-96.9807733333333,3.0,4.6,285,994.25,-23.3,83,0.45,0.0,1024.84,207.4
2019-02-15 13:20,50.6304533333333,-96.9807716666667,3.2,4.5,292,994.39,-23.3,83,0.45,0.0,1025.01,207.4
2019-02-15 13:30,50.6304516666667,-96.9807716666667,4.2,5.9,282,994.59,-23.3,82,0.45,0.0,1025.22,207.4
2019-02-15 13:40,50.6304516666667,-96.9807716666667,5.3,6.9,269,994.78,-23.5,82,0.45,0.0,1025.43,207.4
2019-02-15 13:50,50.6304466666667,-96.980755,5.3,7.3,284,994.66,-23.4,82,0.45,0.0,1025.31,207.4
2019-02-15 14:00,50.6304666666667,-96.9807483333333,3.8,6.1,297,994.82,-23.2,81,0.45,0.0,1025.46,60.8
2019-02-15 14:10,50.6304533333333,-96.9807583333333,2.6,3.7,284,994.88,-23.1,80,0.45,0.0,1025.50,60.8
2019-02-15 14:20,50.6304533333333,-96.980765,3.0,4.9,262,994.99,-23.1,80,0.45,0.0,1025.63,60.8
2019-02-15 14:30,50.6304366666667,-96.9807716666667,4.7,7.2,272,995.08,-23.1,79,0.45,0.0,1025.74,60.8
2019-02-15 14:40,50.6304416666667,-96.98077,4.4,6.7,291,994.99,-23.0,79,0.45,0.0,1025.66,60.8
2019-02-15 14:50,50.630445,-96.980765,4.0,6.1,283,995.03,-22.5,78,0.45,0.0,1025.70,60.8
2019-02-15 15:00,50.630445,-96.9807666666667,1.8,3.3,285,995.04,-21.9,76,0.45,0.0,1025.67,360.0
2019-02-15 15:10,50.630445,-96.9807666666667,2.9,4.2,270,995.14,-21.6,74,0.45,0.0,1025.76,360.0
2019-02-15 15:20,50.6304733333333,-96.980755,3.2,4.6,272,995.23,-21.4,74,0.46,0.0,1025.84,360.0
2019-02-15 15:30,50.6304516666667,-96.9807583333333,3.2,4.3,285,995.16,-21.1,73,0.45,0.0,1025.76,360.0
2019-02-15 15:40,50.63045,-96.98076,3.6,5.5,288,995.20,-20.8,73,0.45,0.0,1025.78,360.0
2019-02-15 15:50,50.6304483333333,-96.9807616666667,4.2,6.9,297,995.21,-20.3,73,0.45,0.0,1025.74,360.0
2019-02-15 16:00,50.6304483333333,-96.9807633333333,5.1,7.1,289,995.27,-19.9,73,0.45,0.0,1025.77,90.0
2019-02-15 16:10,50.6304483333333,-96.980765,5.1,7.0,288,995.38,-19.5,72,0.45,0.0,1025.86,90.0
2019-02-15 16:20,50.6304483333333,-96.9807683333333,4.5,7.0,291,995.43,-19.1,71,0.45,0.0,1025.89,90.0
2019-02-15 16:30,50.6304516666667,-96.9807816666667,4.2,6.4,313,995.52,-18.6,71,0.45,0.0,1025.94,90.0
2019-02-15 16:40,50.6304466666667,-96.98077,3.7,5.4,306,995.59,-18.3,70,0.45,0.0,1025.97,90.0
2019-02-15 16:50,50.6304466666667,-96.9807716666667,4.2,6.0,278,995.86,-17.9,68,0.42,0.0,1026.19,90.0
2019-02-15 17:00,50.63045,-96.9807733333333,4.1,6.6,294,995.93,-17.7,69,0.40,0.0,1026.23,221.2
2019-02-15 17:10,50.6304483333333,-96.9807716666667,2.2,3.8,261,995.98,-17.2,66,0.40,0.0,1026.24,221.2
2019-02-15 17:20,50.6304483333333,-96.9807716666667,2.8,4.5,260,996.02,-16.7,64,0.41,0.0,1026.23,221.2
2019-02-15 17:30,50.6304483333333,-96.9807716666667,3.1,5.9,296,996.11,-16.3,64,0.42,0.0,1026.28,221.2
2019-02-15 17:40,50.6304483333333,-96.9807716666667,1.4,4.8,68,996.18,-15.7,62,0.42,0.0,1026.28,221.2
2019-02-15 17:50,50.6304483333333,-96.9807716666667,3.6,4.9,95,996.16,-15.2,60,0.43,0.0,1026.21,221.2
2019-02-15 18:00,50.6304483333333,-96.9807716666667,4.0,4.8,104,996.23,-16.1,65,0.44,0.0,1026.31,347.4
2019-02-15 18:10,50.6304466666667,-96.9807716666667,3.0,4.4,119,996.39,-16.6,66,0.45,0.0,1026.48,347.4
2019-02-15 18:20,50.6304466666667,-96.9807716666667,2.5,3.7,120,996.35,-16.2,65,0.45,0.0,1026.39,347.4
2019-02-15 18:30,50.6304466666667,-96.9807733333333,1.6,3.4,133,996.20,-15.2,63,0.46,0.0,1026.16,347.4
2019-02-15 18:40,50.6304466666667,-96.9807733333333,1.0,2.7,94,996.17,-13.0,57,0.46,0.0,1025.98,347.4
2019-02-15 18:50,50.6304516666667,-96.98078,0.5,3.9,74,996.08,-12.2,55,0.46,0.0,1025.82,347.4
2019-02-15 19:00,50.63045,-96.9807716666667,1.6,3.7,32,996.04,-12.3,56,0.43,0.0,1025.76,347.4
2019-02-15 19:10,50.6304516666667,-96.9807733333333,2.8,4.7,56,995.97,-13.9,62,0.42,0.0,1025.75,347.4
2019-02-15 19:20,50.6304516666667,-96.98077,1.6,8.4,2,995.93,-13.3,59,0.39,0.0,1025.65,347.4
2019-02-15 19:30,50.63045,-96.9807666666667,5.8,8.8,307,995.82,-13.2,58,0.38,0.0,1025.50,347.4
2019-02-15 19:40,50.630465,-96.98077,4.9,8.8,322,995.76,-13.1,58,0.37,0.0,1025.40,347.4
2019-02-15 19:50,50.6304283333333,-96.9807366666667,3.6,5.8,26,995.83,-13.9,62,0.37,0.0,1025.57,347.4
2019-02-15 20:00,50.6304466666667,-96.9807683333333,3.9,5.6,63,995.87,-13.8,63,0.37,0.0,1025.63,167.4
2019-02-15 20:10,50.6304416666667,-96.9807716666667,4.4,5.7,83,995.79,-13.4,62,0.36,0.0,1025.51,167.4
2019-02-15 20:20,50.6304466666667,-96.9807683333333,4.6,5.9,70,995.75,-13.6,63,0.36,0.0,1025.42,167.4
2019-02-15 20:30,50.6304433333333,-96.9807633333333,4.4,5.4,72,995.65,-14.2,65,0.36,0.0,1025.22,167.4
2019-02-15 20:40,50.6304433333333,-96.9807633333333,4.0,5.4,86,995.65,-13.4,61,0.36,0.0,1025.13,167.4
2019-02-15 20:50,50.6304433333333,-96.9807633333333,5.3,6.2,101,995.68,-14.1,65,0.37,0.0,1025.21,167.4
2019-02-15 21:00,50.6304433333333,-96.980765,5.1,6.0,96,995.61,-14.4,65,0.37,0.0,1025.24,167.4
2019-02-15 21:10,50.6304433333333,-96.980765,4.8,5.7,106,995.55,-14.9,68,0.37,0.0,1025.18,167.4
2019-02-15 21:20,50.6304566666667,-96.9807716666667,4.2,5.3,105,995.57,-15.0,68,0.37,0.0,1025.19,167.4
2019-02-15 21:30,50.6304533333333,-96.9807666666667,3.7,4.8,116,995.71,-15.3,69,0.37,0.0,1025.35,167.4
2019-02-15 21:40,50.630435,-96.98077,4.2,5.0,140,995.81,-16.5,71,0.37,0.0,1025.58,167.4
2019-02-15 21:50,50.6304433333333,-96.9807783333333,4.7,5.4,153,995.84,-17.0,73,0.37,0.0,1025.63,167.4
2019-02-15 22:00,50.6304433333333,-96.9807733333333,4.0,5.0,153,995.87,-17.0,73,0.37,0.0,1025.64,360.0
2019-02-15 22:10,50.6304483333333,-96.9807833333333,4.3,4.8,148,995.91,-17.2,73,0.37,0.0,1025.70,360.0
2019-02-15 22:20,50.630445,-96.980775,5.6,6.8,150,995.87,-17.6,74,0.37,0.0,1025.72,360.0
2019-02-15 22:30,50.6304433333333,-96.98077,6.2,6.9,160,995.81,-17.9,76,0.38,0.0,1025.62,360.0
2019-02-15 22:40,50.6304433333333,-96.98077,5.7,7.3,165,995.70,-17.7,75,0.37,0.0,1025.54,360.0
2019-02-15 22:50,50.6304433333333,-96.98077,6.1,7.0,170,995.77,-17.6,75,0.38,0.0,1025.62,360.0
2019-02-15 23:00,50.6304416666667,-96.9807583333333,5.7,7.1,176,995.81,-17.4,73,0.38,0.0,1025.69,167.4
2019-02-15 23:10,50.6304433333333,-96.9807616666667,4.3,5.3,187,995.88,-17.2,73,0.38,0.0,1025.74,167.4
2019-02-15 23:20,50.630445,-96.9807666666667,2.2,3.0,188,995.82,-16.9,71,0.38,0.0,1025.68,167.4
2019-02-15 23:30,50.6304483333333,-96.98077,2.2,3.8,155,995.74,-16.6,70,0.38,0.0,1025.67,167.4
2019-02-15 23:40,50.63045,-96.980775,3.2,4.0,167,995.71,-17.7,74,0.38,0.0,1025.73,167.4
2019-02-15 23:50,50.630445,-96.9807783333333,2.8,3.2,177,995.76,-18.1,76,0.39,0.0,1025.80,167.4
